Aérodrome :
LOGIN :

S'inscrire | Disclaimer

   EN    FR    IT 

 










Légende :    VFR   VFR Marginal   IFR   IFR Intensif   IFR Très Intensif
Visi : 
Plafond : 
>= 8 km
>= 3000ft
5 à 8 km
1000 à 3000 ft
1500m à 5 km
500 à 1000 ft
800 à 1500m
200 à 500 ft
< 800m
< 200 ft
Symboles :   Orages  Brouillard  Fortes neiges  Fortes précipitations  Vent > 20 kt
SIGMETs :   Divers  Orages  Givrage  Turbulence  Onde Orograph.  Cendres Volcan.







- Altitude de l'aérodrome : 433 ft
- Code IATA : CCF
- Voir les cartes d'approche


LFMK - Carcassonne

DERNIER METAR :
  • 240000Z AUTO 10008KT 070V130 4900 BR OVC003 14/13 Q1018

METARs EXPIRÉS :
  • 232330Z AUTO 10009KT 6000 OVC005 14/13 Q1018
  • 232300Z AUTO 10009KT 9000 OVC006 14/13 Q1018
  • 232230Z AUTO 11006KT 080V160 9999 OVC007 14/13 Q1018
  • 232200Z AUTO 10008KT 9999 OVC008 14/12 Q1018
  • 232130Z AUTO 10008KT 070V140 9999 OVC008 14/12 Q1019

TAF TAF LFMK
Valide du 23 à 15h jusqu'au 24 à 15h UTC


231400Z 2315/2415 10015KT 9999 FEW020 BKN030
BECMG 2317/2319 OVC008
BECMG 2411/2413 BKN015
Pas de NOTAMs connus pour ce terrain.



MET'MAP, la Météo Aéronautique d'un coup d'oeil ! - Copyright ORBIFLY Décembre 2007 - Disclaimer

ORBIFLY MET'MAP TEAM :

Programmation & Développement : Alexandra Zaïnal
Conception & Développement : Baudouin d'Aumeries
Co-Programmation & Développement : Marc-Olivier Méhu
Soutien technique & logistique : Manuel Goepfert

Contact : metmap@orbifly.com




SOURCES & CREDITS :

   NOAA